Time,TemperatureF,DewpointF,PressureIn,WindDirection,WindDirectionDegrees,WindSpeedMPH,WindSpeedGustMPH,Humidity,HourlyPrecipIn,Conditions,Clouds,dailyrainin,SoftwareType,DateUTC
2015-07-05 00:02:00,67.0,49.0,29.76,SW,225,0.0,1.0,52,-99.99,,,-99.99,,2015-07-05 07:02:00,
2015-07-05 00:12:00,67.0,49.0,29.76,SW,225,0.0,1.0,52,-99.99,,,-99.99,,2015-07-05 07:12:00,
2015-07-05 00:22:00,67.0,48.0,29.76,SW,225,0.0,0.0,50,-99.99,,,-99.99,,2015-07-05 07:22:00,
2015-07-05 00:33:00,67.0,47.0,29.76,SW,227,0.0,0.0,49,-99.99,,,-99.99,,2015-07-05 07:33:00,
2015-07-05 00:43:00,67.0,47.0,29.76,SW,227,0.0,0.0,49,-99.99,,,-99.99,,2015-07-05 07:43:00,
2015-07-05 00:53:00,67.0,46.0,29.76,SW,226,0.0,1.0,46,-99.99,,,-99.99,,2015-07-05 07:53:00,
2015-07-05 01:02:00,67.0,44.0,29.76,SW,227,0.0,3.0,43,-99.99,,,-99.99,,2015-07-05 08:02:00,
2015-07-05 01:13:00,67.0,44.0,29.76,SW,227,0.0,3.0,43,-99.99,,,-99.99,,2015-07-05 08:13:00,
2015-07-05 01:22:00,66.0,43.0,29.76,SW,227,0.0,0.0,44,-99.99,,,-99.99,,2015-07-05 08:22:00,
2015-07-05 01:33:00,65.0,41.0,29.76,SW,227,0.0,0.0,41,-99.99,,,-99.99,,2015-07-05 08:33:00,
2015-07-05 01:43:00,65.0,41.0,29.76,SW,227,0.0,0.0,41,-99.99,,,-99.99,,2015-07-05 08:43:00,
2015-07-05 01:53:00,64.0,42.0,29.76,SW,227,0.0,0.0,45,-99.99,,,-99.99,,2015-07-05 08:53:00,
2015-07-05 02:02:00,64.0,43.0,29.76,SW,227,0.0,0.0,47,-99.99,,,-99.99,,2015-07-05 09:02:00,
2015-07-05 02:12:00,64.0,43.0,29.76,SW,227,0.0,0.0,47,-99.99,,,-99.99,,2015-07-05 09:12:00,
2015-07-05 02:23:00,63.0,41.0,29.75,SW,227,0.0,0.0,44,-99.99,,,-99.99,,2015-07-05 09:23:00,
2015-07-05 02:33:00,62.0,39.0,29.75,SW,227,0.0,0.0,42,-99.99,,,-99.99,,2015-07-05 09:33:00,
2015-07-05 02:43:00,62.0,39.0,29.75,SW,227,0.0,0.0,42,-99.99,,,-99.99,,2015-07-05 09:43:00,
2015-07-05 02:53:00,62.0,39.0,29.76,SW,227,0.0,0.0,42,-99.99,,,-99.99,,2015-07-05 09:53:00,
2015-07-05 03:02:00,62.0,38.0,29.76,SW,227,0.0,0.0,41,-99.99,,,-99.99,,2015-07-05 10:02:00,
2015-07-05 03:12:00,62.0,38.0,29.76,SW,227,0.0,0.0,41,-99.99,,,-99.99,,2015-07-05 10:12:00,
2015-07-05 03:23:00,61.0,36.0,29.76,SW,227,0.0,0.0,40,-99.99,,,-99.99,,2015-07-05 10:23:00,
2015-07-05 03:43:00,61.0,36.0,29.76,SW,227,0.0,0.0,40,-99.99,,,-99.99,,2015-07-05 10:43:00,
2015-07-05 03:53:00,61.0,37.0,29.76,SW,227,0.0,0.0,41,-99.99,,,-99.99,,2015-07-05 10:53:00,
2015-07-05 04:03:00,61.0,37.0,29.76,SW,227,0.0,0.0,41,-99.99,,,-99.99,,2015-07-05 11:03:00,
2015-07-05 04:12:00,61.0,37.0,29.76,SW,227,0.0,0.0,41,-99.99,,,-99.99,,2015-07-05 11:12:00,
2015-07-05 04:23:00,60.0,37.0,29.76,SW,227,0.0,0.0,42,-99.99,,,-99.99,,2015-07-05 11:23:00,
2015-07-05 04:33:00,60.0,38.0,29.76,SW,227,0.0,0.0,44,-99.99,,,-99.99,,2015-07-05 11:33:00,
2015-07-05 04:43:00,60.0,38.0,29.76,SW,227,0.0,0.0,44,-99.99,,,-99.99,,2015-07-05 11:43:00,
2015-07-05 04:54:00,60.0,37.0,29.76,SW,227,0.0,0.0,42,-99.99,,,-99.99,,2015-07-05 11:54:00,
2015-07-05 05:02:00,60.0,37.0,29.76,SW,227,0.0,0.0,42,-99.99,,,-99.99,,2015-07-05 12:02:00,
2015-07-05 05:12:00,60.0,37.0,29.76,SW,227,0.0,0.0,42,-99.99,,,-99.99,,2015-07-05 12:12:00,
2015-07-05 07:12:00,59.0,44.0,29.78,SW,227,0.0,0.0,57,-99.99,,,-99.99,,2015-07-05 14:12:00,
2015-07-05 07:22:00,60.0,45.0,29.78,SW,227,0.0,0.0,58,-99.99,,,-99.99,,2015-07-05 14:22:00,
2015-07-05 07:53:00,63.0,48.0,29.79,SW,227,0.0,0.0,59,-99.99,,,-99.99,,2015-07-05 14:53:00,
2015-07-05 08:02:00,65.0,51.0,29.79,SW,227,0.0,0.0,61,-99.99,,,-99.99,,2015-07-05 15:02:00,
2015-07-05 08:12:00,65.0,51.0,29.79,SW,227,0.0,0.0,61,-99.99,,,-99.99,,2015-07-05 15:12:00,
2015-07-05 08:54:00,78.0,50.0,29.78,SW,227,0.0,0.0,37,-99.99,,,-99.99,,2015-07-05 15:54:00,
2015-07-05 09:02:00,80.0,47.0,29.78,SW,227,0.0,0.0,31,-99.99,,,-99.99,,2015-07-05 16:02:00,
2015-07-05 09:13:00,80.0,47.0,29.78,SW,227,0.0,0.0,31,-99.99,,,-99.99,,2015-07-05 16:13:00,
2015-07-05 09:23:00,81.0,46.0,29.78,SW,227,0.0,2.0,29,-99.99,,,-99.99,,2015-07-05 16:23:00,
2015-07-05 09:33:00,82.0,46.0,29.79,SE,134,1.0,4.0,28,-99.99,,,-99.99,,2015-07-05 16:33:00,
2015-07-05 09:43:00,82.0,46.0,29.79,SE,134,1.0,4.0,28,-99.99,,,-99.99,,2015-07-05 16:43:00,
2015-07-05 09:54:00,83.0,46.0,29.78,ESE,118,0.0,3.0,27,-99.99,,,-99.99,,2015-07-05 16:54:00,
2015-07-05 10:03:00,84.0,45.0,29.78,ESE,105,1.0,7.0,26,-99.99,,,-99.99,,2015-07-05 17:03:00,
2015-07-05 10:12:00,84.0,45.0,29.78,ESE,105,1.0,7.0,26,-99.99,,,-99.99,,2015-07-05 17:12:00,
2015-07-05 10:23:00,83.0,47.0,29.78,ESE,117,1.0,6.0,28,-99.99,,,-99.99,,2015-07-05 17:23:00,
2015-07-05 10:33:00,83.0,45.0,29.79,SW,234,2.0,7.0,26,-99.99,,,-99.99,,2015-07-05 17:33:00,
2015-07-05 10:44:00,83.0,45.0,29.79,SW,234,2.0,7.0,26,-99.99,,,-99.99,,2015-07-05 17:44:00,
2015-07-05 10:54:00,83.0,46.0,29.79,East,90,1.0,7.0,27,-99.99,,,-99.99,,2015-07-05 17:54:00,
2015-07-05 11:03:00,84.0,46.0,29.79,East,84,1.0,9.0,27,-99.99,,,-99.99,,2015-07-05 18:03:00,
2015-07-05 11:13:00,84.0,46.0,29.79,East,84,1.0,9.0,27,-99.99,,,-99.99,,2015-07-05 18:13:00,
2015-07-05 11:23:00,84.0,46.0,29.80,South,169,3.0,7.0,27,-99.99,,,-99.99,,2015-07-05 18:23:00,
2015-07-05 11:33:00,84.0,46.0,29.80,ESE,111,1.0,9.0,27,-99.99,,,-99.99,,2015-07-05 18:33:00,
2015-07-05 11:44:00,84.0,46.0,29.80,ESE,111,1.0,9.0,27,-99.99,,,-99.99,,2015-07-05 18:44:00,
2015-07-05 11:54:00,85.0,48.0,29.80,South,170,2.0,8.0,28,-99.99,,,-99.99,,2015-07-05 18:54:00,
2015-07-05 12:03:00,85.0,47.0,29.80,ESE,113,3.0,10.0,27,-99.99,,,-99.99,,2015-07-05 19:03:00,
2015-07-05 12:13:00,85.0,47.0,29.80,ESE,113,3.0,10.0,27,-99.99,,,-99.99,,2015-07-05 19:13:00,
2015-07-05 12:23:00,85.0,47.0,29.80,East,89,3.0,10.0,27,-99.99,,,-99.99,,2015-07-05 19:23:00,
2015-07-05 12:43:00,84.0,48.0,29.80,South,176,0.0,10.0,29,-99.99,,,-99.99,,2015-07-05 19:43:00,
2015-07-05 12:54:00,84.0,50.0,29.79,ESE,105,2.0,10.0,31,-99.99,,,-99.99,,2015-07-05 19:54:00,
2015-07-05 13:03:00,84.0,52.0,29.78,SSE,156,3.0,13.0,33,-99.99,,,-99.99,,2015-07-05 20:03:00,
2015-07-05 13:12:00,84.0,52.0,29.78,SSE,156,3.0,13.0,33,-99.99,,,-99.99,,2015-07-05 20:12:00,
2015-07-05 13:23:00,85.0,51.0,29.78,ESE,109,3.0,10.0,31,-99.99,,,-99.99,,2015-07-05 20:23:00,
2015-07-05 13:33:00,86.0,54.0,29.77,ESE,115,2.0,11.0,33,-99.99,,,-99.99,,2015-07-05 20:33:00,
2015-07-05 13:43:00,86.0,54.0,29.77,ESE,115,2.0,11.0,33,-99.99,,,-99.99,,2015-07-05 20:43:00,
2015-07-05 13:53:00,86.0,54.0,29.78,SSW,197,1.0,6.0,34,-99.99,,,-99.99,,2015-07-05 20:53:00,
2015-07-05 14:02:00,85.0,54.0,29.78,SW,236,0.0,5.0,35,-99.99,,,-99.99,,2015-07-05 21:02:00,
2015-07-05 14:12:00,85.0,54.0,29.78,SW,236,0.0,5.0,35,-99.99,,,-99.99,,2015-07-05 21:12:00,
2015-07-05 14:22:00,84.0,53.0,29.78,SW,217,1.0,8.0,35,-99.99,,,-99.99,,2015-07-05 21:22:00,
2015-07-05 14:33:00,83.0,53.0,29.77,SE,138,0.0,7.0,36,-99.99,,,-99.99,,2015-07-05 21:33:00,
2015-07-05 14:43:00,83.0,53.0,29.77,SE,138,0.0,7.0,36,-99.99,,,-99.99,,2015-07-05 21:43:00,
2015-07-05 14:54:00,82.0,52.0,29.77,SW,225,3.0,12.0,36,-99.99,,,-99.99,,2015-07-05 21:54:00,
2015-07-05 15:03:00,82.0,52.0,29.77,SW,232,2.0,12.0,36,-99.99,,,-99.99,,2015-07-05 22:03:00,
2015-07-05 15:13:00,82.0,52.0,29.77,SW,232,2.0,12.0,36,-99.99,,,-99.99,,2015-07-05 22:13:00,
2015-07-05 15:23:00,81.0,54.0,29.76,East,90,0.0,11.0,39,-99.99,,,-99.99,,2015-07-05 22:23:00,
2015-07-05 15:33:00,82.0,53.0,29.77,South,184,2.0,12.0,37,-99.99,,,-99.99,,2015-07-05 22:33:00,
2015-07-05 15:43:00,82.0,53.0,29.77,South,184,2.0,12.0,37,-99.99,,,-99.99,,2015-07-05 22:43:00,
2015-07-05 15:54:00,79.0,51.0,29.76,SSW,192,1.0,12.0,38,-99.99,,,-99.99,,2015-07-05 22:54:00,
2015-07-05 16:03:00,79.0,51.0,29.76,NNW,337,1.0,9.0,38,-99.99,,,-99.99,,2015-07-05 23:03:00,
2015-07-05 16:13:00,79.0,51.0,29.76,NNW,337,1.0,9.0,38,-99.99,,,-99.99,,2015-07-05 23:13:00,
2015-07-05 16:23:00,79.0,51.0,29.76,NNW,337,1.0,9.0,38,-99.99,,,-99.99,,2015-07-05 23:23:00,
2015-07-05 16:33:00,76.0,52.0,29.75,SW,236,5.0,13.0,43,-99.99,,,-99.99,,2015-07-05 23:33:00,
2015-07-05 16:43:00,76.0,52.0,29.75,SW,236,5.0,13.0,43,-99.99,,,-99.99,,2015-07-05 23:43:00,
2015-07-05 16:53:00,75.0,52.0,29.76,WSW,257,4.0,11.0,45,-99.99,,,-99.99,,2015-07-05 23:53:00,
2015-07-05 17:03:00,75.0,53.0,29.75,WSW,252,2.0,16.0,46,-99.99,,,-99.99,,2015-07-06 00:03:00,
2015-07-05 17:12:00,75.0,53.0,29.75,WSW,252,2.0,16.0,46,-99.99,,,-99.99,,2015-07-06 00:12:00,
2015-07-05 17:23:00,75.0,54.0,29.76,East,94,1.0,10.0,48,-99.99,,,-99.99,,2015-07-06 00:23:00,
2015-07-05 17:33:00,74.0,54.0,29.76,SSE,155,0.0,9.0,49,-99.99,,,-99.99,,2015-07-06 00:33:00,
2015-07-05 17:44:00,74.0,54.0,29.76,SSE,155,0.0,9.0,49,-99.99,,,-99.99,,2015-07-06 00:44:00,
2015-07-05 17:53:00,72.0,54.0,29.76,SE,128,1.0,13.0,53,-99.99,,,-99.99,,2015-07-06 00:53:00,
2015-07-05 18:02:00,72.0,54.0,29.75,WSW,254,0.0,6.0,53,-99.99,,,-99.99,,2015-07-06 01:02:00,
2015-07-05 18:12:00,72.0,54.0,29.75,WSW,254,0.0,6.0,53,-99.99,,,-99.99,,2015-07-06 01:12:00,
2015-07-05 18:23:00,72.0,53.0,29.75,WSW,257,0.0,4.0,51,-99.99,,,-99.99,,2015-07-06 01:23:00,
2015-07-05 18:33:00,73.0,51.0,29.76,SW,225,1.0,8.0,46,-99.99,,,-99.99,,2015-07-06 01:33:00,
2015-07-05 18:43:00,73.0,51.0,29.76,SW,225,1.0,8.0,46,-99.99,,,-99.99,,2015-07-06 01:43:00,
2015-07-05 18:53:00,73.0,52.0,29.76,South,169,1.0,5.0,47,-99.99,,,-99.99,,2015-07-06 01:53:00,
2015-07-05 19:02:00,72.0,53.0,29.77,SW,229,0.0,6.0,51,-99.99,,,-99.99,,2015-07-06 02:02:00,
2015-07-05 19:12:00,72.0,53.0,29.77,SW,229,0.0,6.0,51,-99.99,,,-99.99,,2015-07-06 02:12:00,
2015-07-05 19:22:00,71.0,51.0,29.77,SSW,195,1.0,6.0,50,-99.99,,,-99.99,,2015-07-06 02:22:00,
2015-07-05 19:33:00,71.0,50.0,29.77,SW,221,0.0,3.0,47,-99.99,,,-99.99,,2015-07-06 02:33:00,
2015-07-05 19:43:00,71.0,50.0,29.77,SW,221,0.0,3.0,47,-99.99,,,-99.99,,2015-07-06 02:43:00,
2015-07-05 19:53:00,71.0,50.0,29.77,SSW,213,0.0,7.0,47,-99.99,,,-99.99,,2015-07-06 02:53:00,